TimeCST,TemperatureF,Dew PointF,Humidity,Sea Level PressureIn,VisibilityMPH,Wind Direction,Wind SpeedMPH,Gust SpeedMPH,PrecipitationIn,Events,Conditions,WindDirDegrees,DateUTC
12:58 AM,34.0,30.9,89,30.35,-9999.0,Calm,Calm,-,N/A,,Clear,0,2013-01-23 06:58:00
1:58 AM,35.1,30.9,85,30.34,-9999.0,Calm,Calm,-,N/A,,Clear,0,2013-01-23 07:58:00
2:58 AM,35.1,30.9,85,30.35,-9999.0,Calm,Calm,-,N/A,,Clear,0,2013-01-23 08:58:00
3:58 AM,32.0,28.9,88,30.35,-9999.0,Calm,Calm,-,N/A,,Clear,0,2013-01-23 09:58:00
4:58 AM,30.9,28.9,92,30.37,-9999.0,Calm,Calm,-,N/A,,Clear,0,2013-01-23 10:58:00
5:58 AM,34.0,30.9,89,30.40,-9999.0,Calm,Calm,-,N/A,,Mostly Cloudy,0,2013-01-23 11:58:00
6:58 AM,37.0,33.1,86,30.41,-9999.0,Calm,Calm,-,N/A,,Overcast,0,2013-01-23 12:58:00
7:58 AM,42.1,30.9,65,30.42,-9999.0,Calm,Calm,-,N/A,,Clear,0,2013-01-23 13:58:00
8:58 AM,48.0,33.1,56,30.44,-9999.0,Variable,3.5,-,N/A,,Clear,0,2013-01-23 14:58:00
9:58 AM,52.0,32.0,47,30.44,10.0,Variable,3.5,-,N/A,,Partly Cloudy,0,2013-01-23 15:58:00
10:58 AM,55.9,32.0,40,30.42,10.0,SSW,4.6,-,N/A,,Partly Cloudy,200,2013-01-23 16:58:00
11:58 AM,61.0,36.0,39,30.38,10.0,Variable,4.6,-,N/A,,Clear,0,2013-01-23 17:58:00
12:58 PM,62.1,39.0,43,30.35,10.0,SW,5.8,-,N/A,,Mostly Cloudy,220,2013-01-23 18:58:00
1:58 PM,63.0,39.9,43,30.32,10.0,Variable,5.8,-,N/A,,Scattered Clouds,0,2013-01-23 19:58:00
2:58 PM,64.0,42.1,45,30.32,10.0,Variable,4.6,-,N/A,,Mostly Cloudy,0,2013-01-23 20:58:00
3:58 PM,63.0,43.0,48,30.32,10.0,Calm,Calm,-,N/A,,Clear,0,2013-01-23 21:58:00
4:58 PM,57.0,46.0,67,30.32,7.0,Calm,Calm,-,N/A,,Clear,0,2013-01-23 22:58:00
5:58 PM,55.0,46.0,72,30.32,9.0,SSW,6.9,-,N/A,,Partly Cloudy,210,2013-01-23 23:58:00
6:58 PM,53.1,46.0,77,30.32,10.0,SSW,4.6,-,N/A,,Clear,200,2013-01-24 00:58:00
7:58 PM,54.0,46.9,77,30.32,10.0,SSW,4.6,-,N/A,,Overcast,210,2013-01-24 01:58:00
8:58 PM,54.0,46.9,77,30.32,10.0,SSW,5.8,-,N/A,,Overcast,210,2013-01-24 02:58:00
9:58 PM,53.1,46.9,80,30.32,10.0,SW,5.8,-,N/A,,Clear,220,2013-01-24 03:58:00
10:58 PM,51.1,46.9,86,30.32,10.0,Calm,Calm,-,N/A,,Clear,0,2013-01-24 04:58:00
11:58 PM,48.9,46.0,90,30.31,9.0,Calm,Calm,-,N/A,,Clear,0,2013-01-24 05:58:00